Theta_e
319 319 319 321 322 323 325 324 326 326 326 324 323 325 325 324 322 322 323 321 321 320 316 317 319 320 320 321 322 320 318 321 320 315 313 309 303 305 305 305 309 310 311 312 313 313 312 311 309 308 309 309 310 309 309 309 309 309 309 308 308 308 307 307 307 307 306 306 307 306 307 306 306 306 306 306 306 306 307 307 307 308 308 309 309 309 309 309 309 309 310 309 310 309 308 308 307
318 318 318 321 322 324 325 323 326 326 325 325 324 326 324 322 322 324 325 322 321 316 313 314 315 314 313 313 316 319 319 317 316 313 308 302 302 304 303 306 309 310 311 312 313 312 312 310 308 308 309 309 309 309 308 309 309 309 308 308 307 307 307 307 307 307 306 306 306 306 306 306 306 305 305 305 305 305 306 306 307 307 308 308 308 308 308 308 308 308 309 309 309 308 307 307 306
317 318 318 321 322 324 325 323 327 325 325 326 325 326 323 323 324 324 323 320 315 311 312 313 314 314 314 316 317 319 319 312 310 309 304 301 305 304 303 307 308 310 310 311 312 311 310 309 309 310 309 309 308 308 308 308 308 308 307 307 307 307 307 307 307 306 306 306 306 306 306 306 305 305 305 305 305 305 305 305 305 306 307 307 307 308 307 307 307 307 308 308 308 308 307 307 305
317 317 319 322 323 324 326 326 327 325 325 324 324 324 322 324 323 321 319 315 311 309 312 314 316 312 314 320 317 316 315 311 309 308 305 303 306 305 304 307 308 309 309 310 309 308 309 309 309 309 308 308 307 307 307 307 307 307 307 307 306 306 307 306 306 306 306 306 306 306 305 305 305 305 305 305 305 305 305 305 305 305 306 307 307 307 307 306 306 306 307 307 307 307 306 306 304
315 316 318 322 324 325 325 326 325 326 326 325 324 322 320 320 320 319 314 311 309 309 312 315 317 310 309 313 313 315 313 310 309 306 305 305 305 304 304 306 307 307 308 308 306 307 309 309 309 308 307 307 307 307 306 307 307 307 306 306 306 306 306 306 306 305 305 306 305 305 305 305 305 304 305 304 304 304 304 304 304 305 305 306 306 306 306 306 306 305 306 306 307 306 306 305 303
315 316 317 320 321 320 323 325 324 325 326 325 326 323 318 317 319 319 313 311 310 309 311 312 313 310 309 308 308 312 309 308 309 305 304 305 304 304 305 305 306 306 307 305 303 307 309 308 308 307 306 306 306 306 306 307 307 307 306 306 306 305 305 305 305 305 305 305 304 304 304 304 304 304 304 303 304 304 304 304 304 305 305 305 305 305 305 305 305 305 305 305 306 305 305 305 303
317 319 319 320 319 317 324 326 325 326 324 321 324 321 318 316 316 316 313 312 311 309 310 311 309 309 310 306 306 307 304 305 306 304 303 304 304 303 305 305 305 306 304 302 303 308 308 307 307 305 305 306 306 306 306 306 306 306 306 306 305 305 304 304 304 304 304 303 303 303 303 303 303 303 303 303 303 303 304 304 304 304 304 305 305 304 304 304 304 304 304 305 305 304 304 304 303
316 320 318 322 322 319 323 323 323 324 320 316 317 317 318 318 314 315 315 314 313 310 310 310 307 309 310 305 306 306 303 303 302 302 302 304 304 303 305 304 305 304 300 299 304 306 305 307 307 305 306 306 306 305 305 305 305 305 305 305 305 304 303 303 302 302 302 302 302 302 302 302 303 302 302 301 302 302 303 303 304 304 304 304 304 304 304 303 303 303 304 304 304 304 304 303 302
315 318 317 321 323 321 321 321 321 319 317 314 314 314 315 317 315 315 315 312 312 310 309 310 307 309 309 306 307 305 303 303 301 301 301 303 303 304 304 304 304 301 297 298 304 305 305 308 307 306 306 306 306 305 304 304 304 303 302 302 303 303 302 302 302 301 301 300 300 300 300 301 301 301 301 300 300 301 302 302 302 303 303 303 303 303 303 303 303 303 303 303 303 303 303 302 301
316 316 318 320 321 320 320 321 321 319 316 314 313 312 313 315 314 314 315 312 311 311 309 307 306 307 307 308 308 304 303 302 300 300 301 303 303 304 304 303 302 297 295 298 302 305 307 308 306 307 306 306 305 304 304 303 302 301 300 299 299 301 301 300 300 300 300 300 299 298 299 299 299 299 300 299 298 299 300 301 301 302 302 302 302 302 302 302 302 302 302 302 303 302 302 301 300
318 316 316 318 317 317 318 319 320 320 316 312 311 311 312 314 314 313 314 313 310 311 308 305 306 306 305 308 308 302 300 301 300 300 300 302 302 303 303 302 299 295 295 297 301 305 307 307 307 307 306 306 305 305 304 302 301 300 298 297 297 298 299 299 297 296 297 297 297 295 295 296 297 297 298 298 297 297 298 300 301 301 301 301 300 300 300 301 301 301 301 301 302 301 301 301 299
319 317 316 317 316 317 316 317 317 317 315 312 313 313 311 312 313 313 314 313 311 310 309 307 308 308 307 308 307 301 299 300 300 300 300 301 302 303 301 299 297 295 295 296 301 305 306 307 307 306 306 306 305 305 304 302 301 298 299 299 297 295 295 296 294 294 294 294 294 293 292 292 293 294 295 296 295 294 295 298 299 300 300 300 299 299 299 300 300 300 300 300 301 300 300 300 298
318 318 317 317 315 316 315 315 315 314 314 313 313 313 310 311 313 314 314 313 311 311 310 309 307 307 308 307 305 302 301 300 299 299 300 301 301 302 299 297 294 294 294 295 300 304 305 306 306 306 306 306 305 305 303 302 300 298 300 300 297 293 293 293 293 294 293 293 293 292 292 292 292 292 292 293 293 291 291 294 297 299 298 298 298 298 298 299 299 298 298 299 299 299 298 297 295
316 317 316 316 314 315 314 313 314 312 313 312 312 311 311 312 312 312 312 313 313 310 308 306 305 306 308 307 305 304 302 299 299 299 299 300 301 300 298 296 294 293 293 295 299 303 305 305 306 306 305 306 305 304 304 303 300 298 299 298 296 294 294 295 295 295 294 293 292 292 292 292 292 292 291 291 291 291 290 291 293 297 297 297 297 296 296 297 297 297 296 297 297 295 293 290 289
313 315 315 315 313 313 313 312 313 312 312 311 311 310 311 311 309 310 312 313 312 306 304 305 304 306 306 306 306 303 300 298 298 298 299 300 299 299 298 297 295 294 293 293 296 301 304 304 305 305 305 305 305 304 304 303 301 299 298 296 296 295 295 296 297 297 295 293 292 292 292 292 292 292 292 292 291 291 291 290 291 293 296 295 295 294 294 295 296 295 295 295 294 290 288 287 286
311 314 314 313 312 312 312 312 312 311 311 310 308 308 313 312 308 310 309 308 309 303 303 306 304 304 304 303 302 299 297 297 298 297 298 298 298 299 298 297 297 295 294 292 294 297 301 303 304 305 304 304 305 304 303 302 300 297 296 295 294 294 294 294 295 295 295 294 293 292 292 292 292 291 291 292 291 291 291 291 290 291 293 294 293 292 291 292 294 294 293 293 291 287 287 287 287
310 312 312 311 311 311 311 311 311 310 310 309 306 308 315 313 307 307 303 303 308 304 303 305 303 302 301 300 297 295 296 296 296 297 297 297 298 298 298 297 297 296 295 293 293 294 297 301 303 303 304 304 304 303 302 301 298 296 296 294 292 292 292 292 292 293 294 295 294 292 294 295 294 293 292 291 291 291 291 291 290 290 291 292 292 290 289 290 291 291 290 290 289 287 287 287 287
310 312 310 310 310 311 310 311 310 309 309 308 306 309 313 313 309 305 303 305 307 305 304 304 304 301 298 296 294 294 295 295 296 297 298 298 298 298 298 298 298 297 296 295 294 292 293 296 299 301 302 302 302 302 300 299 297 296 295 293 292 292 292 291 292 292 292 294 293 292 295 297 295 294 293 291 291 291 291 291 290 290 290 290 290 289 288 288 289 289 288 288 287 287 287 287 287
310 311 309 309 310 309 308 309 309 308 308 307 305 306 310 311 309 305 305 308 305 307 308 305 305 303 298 296 295 295 295 296 296 298 299 298 299 299 299 298 298 298 297 296 295 293 292 293 294 296 298 298 299 299 298 296 296 294 293 292 292 291 291 291 291 291 291 292 292 292 294 295 294 293 292 291 291 291 291 291 290 290 289 289 289 289 288 288 288 288 287 287 287 287 287 287 287
309 309 309 310 309 308 307 306 306 305 305 306 305 304 307 309 306 304 306 307 305 308 309 306 307 306 302 298 296 296 296 296 297 298 299 299 299 299 299 298 298 297 296 296 295 294 293 292 292 293 293 293 294 295 294 294 293 292 292 292 291 291 291 291 291 291 292 292 292 292 293 293 292 292 292 291 291 291 291 291 291 290 290 289 289 289 288 288 288 288 287 287 287 287 287 287 287
308 308 309 308 306 306 306 304 304 302 301 304 304 303 306 306 303 304 305 307 308 308 307 307 307 307 304 299 297 297 297 297 297 298 299 299 298 298 297 297 296 296 295 295 294 293 293 293 292 292 292 292 292 292 292 292 292 291 291 291 291 291 291 292 292 292 292 292 292 292 292 292 291 291 291 291 291 291 291 291 291 290 290 289 289 289 289 289 288 288 288 287 288 287 287 287 286
307 308 307 305 304 306 304 300 300 299 300 302 303 304 304 303 303 304 305 308 308 305 303 303 304 303 302 299 298 298 298 298 298 298 299 298 297 296 295 295 294 294 294 294 293 293 293 292 292 292 292 292 292 291 291 292 291 291 292 291 292 292 292 292 292 292 292 292 292 292 292 292 292 291 291 291 291 291 291 291 291 290 290 289 289 289 289 289 288 288 288 288 288 287 287 286 286
307 308 304 302 303 304 302 299 298 298 300 303 303 303 301 302 304 302 303 306 304 301 299 299 300 300 299 300 298 298 298 299 298 298 298 297 296 295 294 294 294 294 294 294 293 293 292 292 292 292 292 292 292 291 291 291 292 292 292 292 292 292 292 292 292 292 292 292 292 292 291 291 291 292 292 291 291 291 291 290 290 290 289 289 289 289 289 288 288 288 288 288 287 287 287 286 286
306 308 304 301 300 301 301 298 297 297 300 301 300 301 301 303 303 300 300 302 299 298 297 297 298 298 298 299 298 298 299 299 298 297 296 296 295 294 294 293 293 294 294 293 293 293 293 292 292 292 292 292 292 292 292 292 292 292 292 292 292 292 292 292 291 291 291 291 291 291 291 291 291 291 291 291 290 290 290 290 289 289 289 289 289 288 288 288 288 288 288 288 287 287 287 287 287
306 307 305 300 299 300 299 296 296 297 298 298 298 300 302 301 300 299 300 299 297 296 296 296 297 297 297 297 297 298 298 297 297 295 295 295 294 293 293 293 293 294 294 294 293 293 292 292 292 292 292 292 292 292 292 292 292 291 291 291 291 291 291 291 291 291 291 290 290 290 290 290 291 291 291 290 290 290 290 289 289 289 289 289 289 288 288 288 288 288 288 287 287 287 287 287 287
307 306 304 301 301 300 298 297 297 296 297 297 299 301 301 297 297 299 299 298 296 295 296 296 296 296 296 295 295 297 297 296 296 295 295 294 294 293 293 293 294 294 294 293 293 292 292 292 292 292 292 292 292 292 292 292 291 291 291 291 291 291 290 290 291 291 290 290 290 289 289 289 290 290 290 290 290 289 289 289 289 289 289 289 288 288 288 287 287 287 287 287 287 287 287 287 286
305 304 303 301 301 300 298 298 298 297 298 297 299 302 299 296 298 302 299 297 296 295 296 295 295 295 294 294 295 295 295 295 295 295 294 294 294 294 294 294 293 293 293 293 293 292 292 292 292 291 291 292 291 291 291 291 291 291 291 291 291 291 291 291 291 290 290 290 289 289 289 289 289 289 289 289 289 289 289 289 289 289 289 289 288 288 287 287 287 287 287 286 286 286 286 286 286
301 302 304 302 300 301 300 299 298 298 299 297 298 301 299 298 300 301 298 296 296 296 296 294 294 294 294 294 294 295 295 294 294 294 294 295 294 294 294 293 293 293 292 292 292 291 291 291 291 291 291 291 291 291 291 291 291 291 291 291 291 291 291 291 290 290 290 289 289 289 289 288 288 288 288 288 288 289 289 289 289 289 289 288 288 287 287 287 287 287 286 286 286 286 286 286 286
300 302 306 306 304 304 302 300 298 298 300 297 297 302 302 300 300 298 296 296 297 296 295 294 293 293 293 293 293 294 294 294 294 294 294 294 294 293 293 293 292 292 291 291 290 290 290 290 290 290 290 290 290 290 290 290 290 290 290 290 290 290 290 290 290 289 289 289 289 289 288 288 288 288 288 287 287 288 288 288 289 289 289 288 287 287 287 287 287 287 287 287 286 287 287 287 287
303 304 306 308 308 308 303 300 298 298 300 296 299 306 305 300 298 297 296 295 297 298 295 294 293 293 293 292 292 292 293 293 293 293 293 292 292 292 291 291 291 291 290 290 289 289 289 289 289 289 289 289 289 289 289 289 289 289 289 289 290 289 289 289 289 289 289 288 288 288 288 288 287 287 287 287 287 288 288 288 288 288 288 287 287 287 287 287 287 287 287 287 287 287 287 287 287
306 307 307 308 309 309 303 299 300 301 300 297 301 308 306 300 298 297 295 295 297 297 295 294 293 293 293 292 292 291 292 292 292 291 291 291 291 290 290 289 289 289 289 288 288 287 287 287 287 287 288 288 288 288 288 288 288 288 288 289 289 289 289 289 289 288 288 288 287 287 287 287 287 287 287 287 287 287 287 288 288 287 287 286 286 287 286 287 287 287 287 287 287 287 287 287 287
307 308 309 309 307 309 305 299 299 302 301 300 303 308 306 300 297 297 295 295 297 296 294 293 293 293 293 292 292 291 291 291 291 290 290 289 289 288 288 287 287 287 286 286 286 286 286 286 286 286 286 286 287 287 287 287 287 286 287 287 287 287 287 288 287 287 287 287 286 286 287 286 286 286 286 286 286 286 286 287 287 286 286 286 286 286 286 287 287 286 286 286 286 286 286 286 286
308 308 308 309 307 309 308 300 298 300 301 302 304 307 306 300 297 296 294 294 295 295 293 293 293 293 293 292 292 291 291 291 290 289 289 288 287 287 286 286 285 285 285 284 284 284 284 285 285 285 285 285 286 286 286 286 286 285 285 285 285 285 285 285 285 284 284 285 284 284 284 284 284 284 284 284 284 285 285 286 285 285 285 286 286 286 286 286 286 286 286 286 286 286 286 286 286
308 308 308 308 306 307 308 304 300 299 302 304 303 304 304 300 296 295 293 293 294 294 293 293 293 293 292 292 292 291 291 290 289 289 288 287 286 285 285 284 284 284 284 283 283 283 283 284 284 285 285 285 285 285 285 285 285 285 284 284 284 284 284 283 283 283 282 283 283 282 282 282 282 282 282 283 283 283 284 284 284 284 284 285 285 285 286 286 286 285 285 285 285 285 285 286 286
308 308 308 308 307 306 307 306 303 301 304 305 304 304 302 298 296 295 294 293 293 293 293 293 293 293 292 292 291 290 289 288 288 288 287 286 285 284 284 283 283 283 283 283 283 283 282 283 283 284 284 284 283 284 284 284 284 284 283 283 283 283 283 283 282 282 281 282 282 281 281 280 280 280 281 281 281 281 282 282 283 283 283 284 284 284 285 285 285 284 285 285 285 285 285 285 285
307 308 307 307 307 306 307 305 302 301 304 305 304 303 300 297 296 295 294 293 293 293 293 293 293 292 292 291 290 289 288 288 287 287 286 285 284 284 283 283 282 282 282 283 282 282 282 281 282 282 282 281 281 282 282 282 281 281 282 282 282 282 282 282 281 281 280 281 281 280 279 279 279 279 279 279 280 280 281 281 282 282 282 283 283 284 284 284 283 283 283 284 284 284 285 285 285
305 306 306 305 305 306 305 303 301 301 304 305 302 300 298 296 295 294 294 294 293 293 293 293 293 292 291 290 290 289 288 287 287 286 285 285 284 283 282 282 282 282 282 282 282 281 281 280 280 280 279 279 280 280 280 280 280 280 280 281 281 281 281 281 280 280 279 280 280 278 277 277 276 276 277 277 278 279 280 281 281 281 281 282 282 282 282 282 282 282 282 283 283 284 284 284 284
305 305 304 305 305 305 304 301 301 301 303 304 302 300 297 295 295 294 293 293 293 293 293 293 292 292 291 290 289 288 288 287 287 286 285 285 284 283 282 282 281 281 281 281 281 281 280 280 279 279 278 278 278 278 279 279 279 279 279 280 280 280 280 279 279 278 278 279 279 277 275 275 274 275 276 276 277 279 279 280 280 280 280 280 281 281 281 281 281 281 281 282 282 283 283 284 284
304 304 304 306 306 305 303 301 301 301 302 304 303 300 297 294 294 293 293 293 292 293 292 292 292 291 291 290 289 288 288 287 287 286 285 285 284 283 282 281 281 281 281 281 281 280 280 279 279 278 278 278 277 277 278 278 278 278 278 278 279 279 279 278 277 277 276 276 277 276 274 274 274 275 276 276 277 278 278 277 277 277 277 278 279 280 279 279 279 279 279 280 280 281 282 283 283
304 304 305 306 304 304 304 303 301 301 301 302 302 300 297 296 295 293 293 293 292 292 292 291 291 291 290 289 289 288 287 287 286 286 286 285 284 283 282 281 281 280 280 280 280 280 279 279 278 278 277 277 276 276 277 277 278 278 278 277 277 277 277 277 276 275 275 274 275 275 273 273 273 274 275 276 276 276 275 275 275 275 275 275 276 277 277 277 277 277 277 277 278 279 280 281 281
304 303 304 304 303 302 303 302 302 302 301 300 301 301 299 297 296 294 293 293 293 292 292 291 290 290 289 288 288 287 287 287 286 286 286 284 284 283 282 281 281 280 280 279 279 279 279 278 278 277 277 276 276 276 276 276 277 277 277 276 277 276 276 276 275 274 274 273 273 274 273 273 273 274 275 275 274 274 274 274 273 273 274 274 274 275 275 275 275 275 275 275 276 276 277 278 279
304 302 301 302 301 301 302 302 302 304 303 300 300 304 301 297 296 295 294 293 293 292 292 291 290 290 289 288 288 287 286 287 286 286 285 285 284 283 282 281 281 280 279 279 279 279 278 278 277 277 276 276 275 275 275 275 276 277 276 275 275 275 275 275 274 273 273 272 273 273 273 273 273 274 274 273 273 273 273 273 272 272 272 272 272 273 274 273 273 273 273 273 274 274 275 276 277
305 301 298 299 300 301 301 301 302 304 304 300 299 303 303 299 296 295 295 294 293 293 292 291 290 290 289 288 287 287 286 286 286 286 285 284 284 283 282 281 280 279 279 278 278 278 278 277 277 276 276 275 274 274 274 274 275 276 275 274 274 274 274 274 273 272 272 272 272 272 273 273 273 273 273 273 272 272 272 272 272 272 272 271 272 272 272 272 271 271 271 272 272 273 274 274 275
304 300 297 299 299 300 301 301 302 302 302 301 300 301 303 302 298 295 295 295 294 293 292 291 290 289 289 288 287 287 286 286 286 286 286 284 284 283 282 281 280 279 278 277 277 277 277 276 276 276 275 274 274 274 273 274 274 275 274 274 274 273 273 273 272 272 272 272 272 272 273 273 273 273 273 272 271 271 271 271 271 271 271 271 271 271 271 271 270 270 270 271 271 272 272 273 274
303 298 297 298 298 299 299 300 301 300 301 303 301 300 302 303 298 295 296 296 295 294 292 291 290 289 288 288 287 286 286 286 286 286 286 284 283 283 281 280 279 278 277 276 276 276 276 276 276 275 275 274 273 273 273 273 274 274 273 273 273 273 272 272 271 271 271 271 271 272 272 272 273 273 272 271 271 271 270 270 270 270 270 270 270 270 270 270 270 270 270 270 270 271 271 272 273
300 296 296 296 297 298 299 300 301 300 302 303 301 299 302 302 298 296 297 297 296 294 292 291 290 289 289 288 287 287 286 286 286 286 285 284 283 282 281 279 278 277 276 276 275 275 275 276 276 275 275 274 273 273 272 272 273 273 273 272 272 272 272 271 271 271 271 271 271 271 272 272 272 272 271 271 271 270 270 269 269 269 269 269 269 270 269 269 269 269 269 269 269 270 270 271 272
298 297 298 298 297 298 299 299 300 302 303 301 299 299 300 301 299 297 296 295 294 294 293 291 290 290 289 288 288 287 287 286 286 286 285 284 283 282 280 279 278 276 276 276 276 275 275 275 275 275 274 273 273 272 272 271 272 273 272 272 271 271 271 270 270 270 270 270 271 271 271 272 272 271 271 271 270 269 269 268 268 268 268 268 269 269 269 268 268 268 268 268 269 269 269 270 271
299 300 301 301 300 300 300 300 300 302 303 300 298 298 299 301 299 295 294 293 292 293 293 292 290 290 289 289 288 287 287 287 287 287 286 285 284 282 280 279 277 277 276 276 276 275 275 274 275 275 274 273 272 272 271 271 272 272 272 271 271 271 270 270 270 270 270 270 270 270 271 271 271 271 271 270 269 269 268 268 268 267 267 268 268 268 268 268 267 267 267 268 268 268 269 269 270
301 301 302 302 302 302 302 302 301 302 301 299 297 297 299 300 296 293 292 291 291 293 293 292 291 290 289 289 288 287 287 287 287 287 286 285 284 282 280 278 277 277 276 276 275 275 274 274 274 274 273 273 272 271 271 271 271 272 271 271 270 270 269 269 269 269 269 270 270 270 270 270 270 270 270 269 269 268 267 267 267 267 267 267 267 267 267 267 266 267 267 267 267 267 268 268 269
300 300 301 302 302 302 302 302 301 301 301 298 296 297 299 299 294 291 291 290 291 291 291 291 290 290 289 289 288 288 287 286 287 286 286 285 283 281 279 278 277 276 276 275 275 274 274 273 274 274 273 272 271 270 270 270 271 271 271 270 270 269 269 269 269 269 269 269 269 269 270 270 270 269 269 268 268 267 266 266 266 266 266 266 266 266 266 266 266 266 266 266 266 267 267 267 268
298 298 299 301 301 300 302 302 301 301 301 299 297 297 300 300 295 290 290 290 290 290 290 290 290 289 289 289 288 288 288 287 287 286 285 284 282 280 279 277 277 276 275 275 274 274 273 273 273 273 272 271 270 270 270 270 271 271 270 269 269 269 268 268 268 268 268 268 268 269 269 269 269 268 268 267 267 266 266 266 265 265 265 265 265 265 265 265 265 265 265 266 266 266 266 266 267
298 297 299 301 299 299 301 300 299 299 299 299 298 298 297 295 292 289 289 289 289 289 289 289 289 289 289 289 288 288 288 287 287 287 286 284 281 279 278 277 276 276 275 274 273 273 272 272 273 272 271 270 270 269 269 270 270 270 269 268 268 268 268 267 267 268 268 267 267 268 268 268 268 267 267 266 266 265 265 265 265 265 265 265 264 264 264 264 264 264 265 265 265 265 265 266 266
299 299 299 298 296 297 300 298 296 296 298 298 298 298 296 293 291 290 290 290 289 289 289 289 289 288 288 288 287 287 287 287 287 287 287 284 281 279 277 277 276 275 275 274 273 272 272 272 272 271 270 270 269 269 269 269 270 269 268 267 267 267 267 267 267 267 267 267 267 267 268 268 267 267 266 265 265 265 265 264 264 264 264 264 264 264 264 264 264 264 264 264 264 265 265 265 265
299 299 298 295 295 296 298 298 298 298 298 298 298 297 296 296 295 292 291 291 291 289 289 289 288 288 288 287 287 287 287 286 287 287 286 283 279 278 277 276 276 275 274 273 272 272 271 271 271 270 270 269 269 268 268 269 269 268 267 267 267 267 266 266 266 266 266 266 266 266 267 267 267 266 265 265 264 264 264 264 264 264 264 264 264 263 263 263 263 263 263 264 264 264 264 265 265
297 297 296 296 297 297 298 298 298 299 298 298 297 295 295 297 296 293 292 292 291 290 290 289 288 288 287 287 287 287 286 286 286 286 286 282 279 278 277 276 275 274 273 273 272 271 271 271 271 270 269 269 268 268 268 268 268 267 267 267 266 266 266 266 266 266 266 266 266 266 266 266 266 265 264 264 264 264 264 264 263 263 263 263 263 263 263 263 263 263 263 263 263 264 264 264 264
297 297 296 296 296 297 297 296 296 298 298 297 297 296 296 296 294 293 292 291 291 291 289 289 288 288 287 287 287 286 286 285 285 285 284 281 279 278 277 276 275 274 273 272 272 271 270 270 270 269 269 269 268 268 268 268 268 267 266 266 266 266 265 265 265 265 265 265 265 265 265 265 265 264 264 264 264 263 263 263 263 263 263 263 263 263 263 263 263 263 263 263 263 263 263 263 263
297 297 297 296 296 296 296 295 295 296 297 297 296 297 296 294 291 292 291 290 290 289 288 288 288 287 287 287 286 285 285 284 284 284 282 280 279 278 277 276 275 274 273 272 271 271 270 270 270 269 269 268 268 268 268 267 267 267 266 266 265 265 265 265 265 265 265 265 265 265 264 264 264 264 263 263 263 263 263 263 263 263 263 263 263 262 262 262 262 262 262 262 262 262 262 263 263
296 296 296 295 295 296 296 295 294 294 295 296 296 296 296 293 291 291 290 289 289 288 288 288 287 287 286 286 285 285 283 283 283 282 281 280 279 278 277 276 275 274 273 272 271 270 270 269 269 269 268 268 267 267 267 267 266 266 266 265 265 265 265 265 264 264 264 264 264 264 264 264 263 263 263 263 263 263 262 262 262 262 262 262 262 262 262 262 262 262 262 262 262 262 262 262 262
Wind_Speed
2 3 1 1 3 4 4 2 4 3 3 7 6 3 2 2 2 2 3 3 2 1 1 1 3 4 3 1 1 3 3 1 3 3 1 3 7 12 11 14 18 18 18 16 16 14 12 12 11 11 13 13 13 14 14 15 15 15 15 15 15 15 14 14 13 13 13 12 12 12 11 12 12 12 12 12 12 12 12 12 12 12 12 12 13 13 13 13 13 13 12 13 13 13 14 13 13
3 2 1 1 3 3 2 1 5 4 5 8 6 4 1 3 1 4 2 2 1 3 1 1 3 2 2 3 2 1 1 2 4 2 3 4 10 11 13 18 18 17 17 16 16 13 12 12 11 13 14 14 14 15 15 15 15 16 16 16 15 15 15 14 14 14 13 13 13 12 12 12 12 12 12 12 12 11 12 12 12 12 12 12 12 13 13 13 12 13 12 12 12 13 13 12 14
2 1 2 3 2 0 1 1 6 6 7 8 5 3 3 2 4 1 1 1 3 3 2 3 2 1 2 3 2 2 1 2 1 2 3 7 10 11 18 20 17 17 17 16 15 13 12 13 13 14 14 15 15 15 16 16 16 16 15 15 15 15 15 15 15 14 14 14 14 13 13 13 13 13 12 12 12 11 11 11 12 12 12 12 12 12 12 12 12 12 12 12 12 12 12 12 13
1 1 3 4 1 1 3 4 6 7 8 7 4 3 4 5 2 2 2 2 3 3 3 4 3 1 3 5 1 2 2 2 3 2 4 8 8 14 24 22 19 17 17 16 14 13 12 14 15 14 15 15 15 16 16 16 16 16 15 15 15 15 15 15 14 14 14 14 14 14 14 13 13 13 13 12 12 12 11 11 12 12 12 12 12 12 12 12 12 12 12 12 12 12 12 12 13
3 3 2 3 2 2 2 3 3 7 7 4 3 2 4 3 1 3 4 3 3 4 3 5 3 2 2 3 0 1 1 2 3 3 3 8 10 18 27 25 21 18 17 15 13 13 13 15 15 15 15 15 16 16 15 15 15 15 15 15 14 14 14 14 14 14 14 14 14 14 13 13 14 13 14 13 13 12 12 12 12 12 12 12 12 12 11 11 11 11 11 11 11 11 11 11 12
3 4 4 2 0 0 2 4 5 8 5 3 4 0 3 1 1 3 5 3 3 2 2 4 2 1 2 1 2 2 2 1 4 4 3 8 15 21 27 26 21 17 17 15 13 13 14 16 15 15 15 15 16 15 15 14 14 14 14 14 14 14 14 14 14 14 14 14 14 14 14 14 14 13 14 14 14 13 13 12 12 12 12 12 12 12 11 11 11 11 11 11 11 10 10 11 11
4 2 3 2 2 0 5 7 6 7 2 1 5 2 2 1 2 4 5 4 3 2 3 3 0 1 2 1 2 1 0 1 3 4 5 11 19 23 27 25 18 17 17 15 14 14 15 16 14 15 15 15 15 14 14 14 13 13 13 13 13 13 13 13 13 14 14 14 14 14 14 14 13 13 14 14 14 14 13 13 12 12 12 12 12 12 11 11 11 11 11 11 10 10 10 10 10
1 2 0 2 3 2 5 7 6 5 0 0 4 3 1 2 4 5 6 5 3 4 5 4 2 3 1 1 2 3 4 3 4 6 8 16 22 25 27 22 18 18 16 16 15 16 17 15 14 15 14 14 14 14 13 13 13 12 12 12 12 12 12 12 12 12 13 13 13 13 13 14 13 13 14 14 14 14 13 13 12 12 12 12 12 12 11 11 11 10 10 10 10 10 10 10 10
3 1 1 4 4 3 6 7 5 4 2 2 4 3 1 3 6 6 8 6 2 5 6 6 6 4 2 2 2 4 5 6 6 7 11 18 24 26 26 21 18 19 17 18 17 17 17 14 14 14 14 13 13 13 12 12 12 11 11 11 11 11 11 11 11 11 11 12 12 13 13 13 13 13 13 14 14 14 13 13 12 12 12 12 11 11 11 11 10 10 10 9 10 9 9 9 9
1 2 1 3 4 5 7 7 5 3 3 3 4 5 4 6 7 7 8 6 4 6 5 4 5 5 0 2 3 4 6 9 8 8 13 19 24 26 25 19 18 20 19 19 19 16 16 17 14 13 13 13 12 12 11 11 10 10 10 10 10 10 9 9 10 10 10 11 11 12 12 12 12 13 13 13 13 13 13 12 12 11 11 11 11 11 11 11 10 10 9 9 9 9 9 9 8
2 1 0 3 5 7 7 6 6 3 2 2 5 5 5 7 7 6 7 4 4 5 5 5 5 6 3 2 2 4 5 11 8 9 16 20 24 25 24 19 17 19 20 21 20 16 15 17 15 13 12 11 11 11 10 10 9 9 8 8 8 8 8 8 8 9 9 9 10 10 11 11 11 12 12 12 12 12 12 12 12 11 11 11 11 12 12 11 10 10 9 9 9 8 9 8 7
4 2 2 5 6 6 5 5 6 5 4 4 3 2 3 7 7 5 8 5 5 5 6 9 3 3 5 2 2 5 6 9 7 10 18 22 23 23 22 21 19 18 19 22 21 17 14 14 15 14 12 11 11 10 9 9 8 7 6 6 5 6 6 6 7 8 8 8 9 9 10 10 10 11 11 11 11 11 11 11 12 11 11 11 11 12 12 12 11 10 9 8 8 8 8 7 7
3 2 4 5 3 4 3 5 5 6 6 4 1 3 3 7 5 3 5 5 5 6 5 8 2 1 4 1 3 5 6 9 8 13 20 22 22 22 23 22 21 19 20 22 21 18 16 13 13 14 13 11 10 10 9 7 6 5 4 3 2 4 5 5 6 6 7 7 8 9 10 10 11 10 10 10 10 11 11 10 11 11 11 11 11 11 11 12 11 10 10 9 8 8 7 6 7
2 1 4 3 0 2 3 5 4 4 5 2 3 2 3 3 1 2 2 5 6 3 1 4 2 3 3 1 4 4 7 10 11 15 21 22 23 24 23 23 21 19 19 21 20 19 17 14 13 14 14 10 9 9 8 7 5 3 3 1 1 3 4 4 5 5 5 6 7 9 9 10 10 11 11 11 11 11 11 10 10 10 10 11 11 11 11 11 10 10 10 9 7 6 7 8 9
1 2 2 3 2 2 3 4 2 4 4 3 3 2 3 1 1 1 3 4 2 3 2 3 2 2 1 0 2 4 7 12 13 17 22 23 23 24 23 23 21 19 18 18 19 19 17 14 13 13 13 10 9 8 7 6 5 4 2 1 1 2 3 3 3 4 6 7 8 9 10 10 10 10 11 11 11 11 11 11 10 10 9 10 10 10 10 10 10 10 9 8 7 8 10 10 10
1 1 2 4 3 3 3 2 1 4 3 3 2 1 3 3 1 2 1 3 0 3 1 3 3 2 2 3 4 5 8 14 15 18 21 21 20 20 21 20 17 19 19 18 18 18 17 15 12 11 11 10 9 8 6 6 6 5 3 3 3 4 4 5 5 5 7 8 10 11 11 11 11 11 11 11 11 11 11 11 10 10 9 9 10 10 10 9 9 9 9 8 9 12 12 12 11
1 2 3 4 4 3 3 4 2 2 2 3 3 3 4 2 3 2 1 2 2 2 2 2 2 2 3 4 4 4 11 15 16 18 18 16 16 15 15 15 14 16 18 18 16 16 17 16 13 11 10 11 12 10 8 7 7 6 5 6 6 6 7 7 8 8 8 9 11 12 11 10 10 11 11 11 12 12 11 10 10 10 10 9 10 11 11 10 9 9 9 9 11 13 13 13 13
2 3 4 5 4 3 2 4 2 2 3 2 3 3 4 1 2 2 2 4 2 2 4 3 3 1 3 4 4 8 13 15 16 18 17 15 14 14 14 13 13 13 15 16 16 17 16 15 14 11 10 12 12 11 10 9 8 7 8 8 8 9 9 10 10 11 11 10 12 12 10 8 8 10 11 12 12 12 12 11 11 10 10 10 10 11 12 11 10 10 10 11 13 14 14 13 13
2 1 4 5 2 1 0 1 1 2 3 2 2 2 3 2 2 2 3 2 2 4 5 4 5 6 4 4 7 11 13 14 16 17 17 18 16 16 15 13 13 12 12 12 14 17 16 14 14 12 11 11 11 11 10 10 9 10 10 10 11 11 12 12 12 12 12 12 12 12 9 8 10 10 11 12 12 12 11 11 11 10 10 10 10 11 12 12 11 12 12 12 13 14 13 12 12
1 1 5 4 0 1 1 2 2 1 2 1 1 1 3 2 1 2 3 2 3 6 5 4 6 7 7 7 8 11 12 13 14 15 16 16 14 14 12 12 12 10 9 9 10 15 16 14 13 12 12 12 11 11 11 11 11 12 12 13 13 13 13 13 12 12 11 10 10 9 8 9 10 10 10 11 11 10 11 11 11 10 10 10 11 11 12 12 12 12 13 13 12 12 12 11 12
2 2 4 1 1 2 1 2 2 0 1 2 1 2 3 2 1 2 2 4 4 3 3 4 5 3 5 9 9 10 12 12 13 13 13 13 10 9 7 7 8 7 8 8 7 11 14 14 13 13 13 12 13 12 12 12 13 13 12 13 13 12 12 11 10 9 8 8 8 8 8 9 9 9 10 10 9 10 10 10 10 10 10 11 12 11 10 10 11 10 11 12 10 10 11 11 12
2 2 1 2 1 3 1 2 1 2 1 1 2 2 1 2 2 3 4 6 3 4 6 6 6 7 2 7 9 10 11 12 12 11 10 9 8 6 6 6 5 5 6 5 4 7 10 11 12 12 13 13 13 13 12 13 12 10 10 10 9 8 8 7 6 6 6 7 8 8 8 9 9 8 9 10 10 11 11 10 9 10 11 11 11 10 9 10 10 9 9 9 9 10 12 12 13
3 2 1 1 2 2 1 2 2 3 3 3 2 0 2 2 2 1 4 6 6 7 7 8 7 7 3 6 10 9 9 9 9 7 6 7 7 6 6 6 5 5 4 3 2 2 4 7 8 9 10 10 11 11 9 8 7 6 5 5 4 4 5 6 6 7 7 8 9 9 9 9 9 8 9 9 10 11 11 10 11 11 12 11 10 10 10 10 10 9 9 10 10 11 12 13 14
4 3 1 2 2 3 0 2 2 3 3 1 0 0 2 3 1 2 1 6 11 10 8 7 5 4 3 4 7 5 5 6 6 6 6 7 7 7 7 7 7 6 6 4 3 2 2 4 4 5 5 5 4 3 1 2 4 5 7 7 8 9 9 10 10 10 11 11 11 11 11 10 9 9 9 9 10 11 10 12 12 11 11 10 10 10 10 10 10 9 10 10 11 10 11 12 12
5 4 1 2 2 3 0 1 2 3 2 0 1 3 2 0 1 1 5 10 12 11 9 6 4 5 5 5 5 5 6 7 8 8 8 8 8 9 8 8 7 7 7 6 5 5 3 3 3 3 4 5 7 8 10 11 12 13 14 13 14 14 13 13 13 13 13 13 13 13 12 11 10 10 10 10 11 10 10 11 11 10 10 9 10 10 9 10 10 10 10 11 11 10 11 11 11
4 2 1 2 1 0 0 1 2 1 1 1 3 5 1 3 0 2 6 12 11 8 8 7 6 7 7 7 7 7 7 8 9 9 10 10 10 11 10 8 9 9 11 11 12 13 12 13 14 14 15 16 16 16 16 16 16 17 17 17 16 16 15 15 14 14 14 13 14 14 13 12 11 11 10 10 10 10 9 10 9 8 9 8 9 10 9 10 11 10 11 11 11 11 11 11 12
1 1 1 2 1 2 1 2 0 0 2 3 4 4 3 2 1 1 7 14 10 6 8 8 8 9 9 8 9 9 9 9 9 10 11 11 11 12 11 12 14 15 17 19 19 19 20 21 22 21 21 20 20 19 19 17 17 18 17 17 17 17 16 15 14 14 14 14 13 13 13 12 11 10 10 9 9 9 8 8 8 8 8 8 9 10 10 11 11 11 12 12 12 12 12 12 12
1 0 3 3 1 1 1 2 0 1 2 4 4 2 4 2 1 3 9 13 8 6 10 9 9 10 10 11 10 10 11 10 10 11 12 11 11 13 15 15 18 19 20 20 19 20 21 23 23 22 21 19 19 19 18 17 17 17 16 16 16 16 15 14 14 13 13 13 12 12 12 11 10 10 9 9 9 8 8 8 9 8 8 8 9 11 12 13 12 12 12 14 14 12 12 11 11
1 0 3 3 3 2 2 2 0 1 1 3 3 2 4 4 4 6 10 11 6 6 10 9 10 9 10 11 10 11 13 13 12 13 13 14 15 17 18 17 18 20 20 21 22 23 23 24 24 23 22 21 20 19 18 17 17 17 16 16 15 15 14 14 13 13 12 12 12 11 11 11 11 11 10 11 11 10 10 10 10 9 9 9 10 11 12 12 11 11 11 12 11 11 10 11 11
1 1 2 4 4 2 3 2 0 1 2 3 3 3 2 7 6 8 9 10 6 6 10 8 9 9 10 11 11 12 15 17 17 17 17 18 18 20 21 20 20 21 21 23 26 27 27 26 26 25 24 23 22 20 19 19 18 17 16 15 15 14 13 13 13 12 11 11 11 11 11 12 12 13 13 13 13 12 12 11 11 10 10 13 12 11 12 11 10 11 11 11 11 11 11 11 11
1 1 1 2 3 1 4 2 1 1 2 1 4 4 2 7 7 11 10 10 7 8 10 9 9 9 10 11 12 13 16 20 22 22 22 22 21 22 24 23 23 23 23 25 27 28 28 28 27 26 25 24 23 22 20 19 18 18 17 16 16 15 14 13 13 13 13 12 12 13 13 14 14 15 15 15 14 14 13 12 12 12 15 17 15 13 14 13 11 11 12 12 12 12 12 12 12
0 1 2 1 2 1 4 3 4 2 1 1 3 4 2 7 9 13 12 10 7 9 10 10 11 11 11 12 13 13 16 22 24 24 24 24 23 24 25 25 25 26 25 26 27 29 30 29 27 26 25 25 24 23 21 20 19 19 19 18 17 17 16 15 15 15 15 14 15 15 16 16 16 16 16 16 15 14 14 13 13 15 18 19 17 16 16 13 12 14 13 12 12 12 13 13 13
2 2 3 1 2 4 2 3 4 3 1 2 1 4 1 6 10 13 12 12 8 10 11 11 11 12 12 12 12 13 15 19 23 24 24 24 24 24 25 26 27 28 28 28 28 29 31 30 29 29 28 27 25 24 23 22 21 20 20 20 19 19 17 17 16 17 16 16 16 17 17 17 17 17 17 17 16 15 14 14 14 16 18 18 17 16 14 13 13 14 14 12 12 13 13 14 14
1 1 3 2 2 4 3 1 3 3 1 1 0 2 3 9 11 13 14 12 10 11 11 12 12 12 13 12 13 13 14 15 17 21 23 23 23 24 25 26 27 29 30 30 30 29 30 31 31 31 30 29 28 27 26 25 24 24 22 21 21 19 17 17 17 17 16 16 16 17 18 17 17 18 18 17 16 15 14 13 14 16 17 16 15 14 13 12 12 12 13 12 12 13 13 14 15
3 4 4 3 2 3 5 2 4 5 2 3 3 1 5 12 12 13 13 11 11 12 11 12 13 13 13 13 13 14 15 15 16 19 21 21 22 23 24 26 28 28 29 30 31 31 31 31 32 33 33 32 30 30 29 28 28 27 25 23 22 18 16 17 16 16 16 14 14 16 17 17 17 18 18 17 16 15 14 13 14 15 15 14 13 12 11 11 12 12 13 13 13 13 13 14 14
4 5 4 6 5 4 5 2 5 5 4 3 4 3 8 12 13 13 12 11 12 12 12 11 12 13 13 13 13 13 15 15 17 19 20 21 21 21 22 24 26 27 27 29 30 32 31 31 32 33 33 33 32 30 29 28 28 27 23 21 20 17 14 15 14 14 15 13 13 15 16 17 18 19 18 18 16 15 14 13 13 13 13 12 11 11 11 11 12 12 12 13 13 13 12 12 12
3 3 3 5 6 5 4 3 5 3 3 2 6 8 10 11 12 12 11 11 13 12 13 12 12 12 12 13 14 14 14 14 16 19 20 21 21 21 21 21 23 26 26 27 28 28 28 28 30 30 29 30 30 27 24 23 23 22 20 17 17 15 13 13 13 13 14 12 12 15 17 19 20 19 18 17 15 14 13 12 12 12 12 12 11 11 11 11 11 11 12 12 12 12 12 11 11
2 3 4 4 4 4 3 4 4 3 3 2 5 7 11 11 11 11 10 12 12 11 12 13 13 13 12 13 14 13 12 13 16 18 19 20 20 20 20 21 23 24 23 24 24 24 24 26 27 26 26 27 27 26 22 19 19 18 17 16 15 15 12 13 13 13 14 13 12 15 18 20 21 18 16 15 13 12 11 11 11 12 12 12 11 11 10 11 11 12 13 12 12 12 12 12 11
2 2 4 3 3 4 2 3 2 2 3 2 2 5 8 10 11 12 11 12 11 11 12 12 12 12 11 12 12 12 12 12 14 16 17 18 19 19 19 19 20 20 20 21 21 21 23 25 24 23 25 26 25 26 24 19 18 17 17 16 15 14 12 12 13 13 15 16 14 15 19 20 19 16 14 13 11 11 11 11 11 11 12 13 12 11 11 11 12 13 13 13 13 13 12 11 10
1 2 3 3 5 4 1 2 2 2 2 2 2 3 6 7 10 11 11 11 11 12 14 13 12 12 12 12 11 11 11 11 12 13 15 16 17 18 18 17 17 18 20 20 20 20 21 22 22 21 23 25 24 26 26 21 19 17 15 16 13 12 12 11 12 14 16 18 16 16 20 22 19 15 13 12 11 11 12 12 12 13 13 14 13 13 12 13 13 14 14 14 14 14 14 13 12
2 3 3 4 5 4 3 4 7 3 3 1 4 2 5 5 7 9 8 10 11 11 12 13 12 11 12 12 11 11 10 10 10 11 12 14 15 16 16 16 17 18 19 19 18 18 18 19 20 20 21 24 24 25 27 24 19 15 15 15 13 12 11 12 14 16 17 19 17 16 18 19 19 15 12 12 12 12 13 13 14 14 14 14 14 13 13 13 13 14 14 14 13 14 15 15 14
2 3 3 3 4 5 6 7 8 4 2 3 4 3 2 5 7 7 6 8 10 9 10 11 10 10 10 10 10 10 9 10 10 10 11 12 13 14 15 16 17 17 17 16 16 16 17 17 19 20 21 23 24 25 26 23 18 15 16 16 15 14 13 13 15 17 18 18 17 16 15 14 14 12 9 10 12 12 13 14 15 15 15 14 15 14 13 13 13 14 14 14 14 14 15 16 16
3 2 1 1 3 6 7 7 6 4 2 3 3 4 1 4 6 7 6 8 9 9 10 9 8 8 8 7 7 7 7 8 8 9 10 11 11 13 14 15 15 15 14 14 15 16 17 18 20 22 23 25 25 24 23 22 17 15 15 14 14 15 14 15 16 17 17 17 16 16 14 13 12 9 8 10 11 13 14 15 15 16 15 15 15 14 12 13 14 14 14 14 14 14 13 15 16
2 2 1 3 5 6 5 5 3 2 2 1 3 2 3 1 5 6 6 8 8 8 8 8 7 7 7 7 7 7 6 6 6 7 9 10 10 11 12 12 13 13 14 15 17 16 17 19 21 22 24 25 24 23 22 22 18 15 15 14 14 15 14 16 17 17 17 16 16 15 14 13 11 8 9 10 11 13 14 15 16 16 16 16 16 14 13 14 14 15 15 14 13 13 13 14 15
2 2 2 4 4 4 3 3 1 1 2 1 5 4 4 1 5 5 4 5 6 6 6 6 6 6 6 6 6 6 6 6 6 6 7 8 8 9 9 9 10 12 14 17 18 17 16 18 19 19 20 22 22 23 23 21 18 15 14 14 15 15 15 16 18 17 17 16 16 16 14 13 10 9 10 11 11 12 13 14 15 16 17 17 16 14 14 15 15 15 15 14 14 13 13 14 15
2 0 1 0 0 0 1 1 1 1 1 3 6 5 4 3 4 3 1 3 3 3 4 4 5 5 5 5 4 4 4 4 5 5 6 6 6 7 7 8 10 12 14 15 16 17 16 16 17 17 17 18 21 22 23 21 18 14 13 14 15 16 17 18 18 18 17 17 16 16 15 13 11 11 11 11 12 12 13 15 16 16 17 16 15 15 15 15 15 16 16 15 15 15 14 14 14
3 4 3 2 2 1 1 1 1 2 1 4 5 4 4 3 3 4 3 2 3 1 3 4 5 5 4 3 3 3 2 2 3 3 3 3 4 5 6 7 9 11 12 13 14 16 17 16 16 16 16 17 20 21 21 20 17 13 13 14 15 17 18 19 19 19 18 17 17 16 15 14 12 12 12 12 13 14 15 16 17 17 17 16 15 15 15 15 16 16 16 16 15 15 15 15 15
4 4 3 1 1 2 2 2 1 2 3 3 3 4 4 3 3 5 5 5 5 3 3 6 6 4 3 2 2 2 1 1 1 1 1 1 2 3 5 7 8 9 11 13 15 15 17 17 15 16 15 16 18 19 19 18 16 13 13 14 15 17 18 19 19 18 18 17 17 17 16 15 14 13 14 14 15 16 18 19 19 18 17 16 16 15 15 16 17 17 16 16 16 16 16 15 15
4 4 4 4 3 2 1 1 1 2 3 2 2 6 4 1 4 5 6 7 6 2 3 5 5 4 3 2 1 1 1 1 2 2 1 1 1 2 5 6 7 9 11 13 15 15 16 16 15 14 14 15 17 18 18 17 15 13 13 15 16 17 18 18 18 17 17 16 17 17 16 15 15 15 15 16 17 18 20 20 20 19 18 17 17 16 17 17 17 17 17 16 17 17 16 16 16
7 5 6 5 4 4 3 3 2 3 2 1 1 4 1 3 4 5 6 6 6 6 6 5 5 4 3 1 0 1 2 2 3 3 2 2 0 2 4 5 6 8 10 12 14 15 15 16 14 12 14 15 17 18 17 16 14 12 13 16 18 18 18 18 18 17 17 17 17 17 16 16 16 16 17 17 18 20 21 21 20 19 18 18 18 17 17 17 17 17 17 17 17 17 17 17 18
4 3 4 4 3 4 4 3 4 4 4 3 2 1 2 2 3 4 5 5 6 6 6 6 5 4 3 2 2 3 3 3 3 4 4 2 2 3 4 5 6 7 10 12 14 14 15 15 12 12 14 15 17 18 17 16 13 12 15 18 18 17 17 18 18 17 17 18 18 18 17 16 16 16 17 18 20 22 22 21 20 20 19 19 18 18 18 17 17 17 18 17 17 17 17 18 18
2 1 2 4 3 3 3 2 2 3 4 2 1 1 3 3 3 4 4 5 6 6 6 6 5 4 4 4 4 5 5 5 4 5 5 3 3 4 4 4 5 8 10 12 14 14 15 14 11 12 14 15 17 17 16 15 12 12 15 17 17 16 16 18 17 17 17 18 18 18 17 17 16 17 18 19 21 22 22 22 21 20 20 19 19 18 18 18 18 18 18 18 18 18 18 19 19
1 2 3 4 2 3 3 1 1 2 3 0 1 1 2 3 3 3 3 3 4 4 4 4 4 4 4 5 6 5 6 6 6 7 6 4 4 4 3 3 5 8 10 11 13 13 15 13 11 12 14 14 15 15 15 13 11 13 15 16 15 15 16 17 17 17 18 17 18 18 17 17 17 18 19 21 21 21 21 21 21 21 20 20 19 19 19 19 19 19 19 19 19 18 18 19 18
3 4 4 2 2 1 1 2 1 2 3 2 1 1 1 1 1 3 3 2 2 2 2 2 2 4 6 7 7 7 8 8 9 9 4 5 5 3 2 3 5 7 9 11 12 13 14 12 11 12 14 14 15 15 14 13 12 14 15 15 16 16 17 17 17 17 17 18 18 18 18 18 18 19 20 21 21 20 20 20 20 21 21 20 20 20 20 20 20 20 20 20 20 19 19 19 18
4 3 2 2 1 1 1 2 2 3 4 3 1 0 1 1 2 2 3 3 2 2 0 2 4 6 7 9 9 9 10 8 9 9 2 5 4 2 2 4 5 7 9 11 11 12 14 12 11 12 13 14 15 15 14 13 12 14 15 17 17 17 17 17 17 17 17 18 19 18 18 18 19 20 21 21 21 20 21 21 21 21 21 21 21 21 21 21 21 21 20 20 19 19 19 20 19
3 2 2 2 1 2 2 2 2 3 4 5 3 2 0 3 3 4 4 4 1 1 2 4 6 8 8 10 10 10 10 9 9 8 0 5 3 1 2 4 5 7 10 11 11 13 14 13 12 13 13 14 15 15 14 13 13 15 17 18 18 18 17 17 17 17 18 18 18 18 18 19 19 20 21 21 21 21 22 22 22 22 23 23 22 22 22 22 22 22 21 21 21 20 21 22 21
3 4 6 5 2 0 0 0 0 2 4 3 5 6 1 4 2 2 2 3 2 1 3 5 6 8 9 9 9 9 9 10 9 6 1 3 1 1 3 5 7 9 10 11 12 13 14 13 12 13 14 15 16 16 14 13 14 16 18 19 19 18 17 17 17 18 18 18 18 18 18 19 20 21 21 22 23 23 24 24 25 25 25 25 24 24 24 23 24 24 23 22 22 22 22 22 22
6 5 5 5 3 0 1 1 2 1 3 2 5 7 2 4 2 1 2 1 2 1 4 6 7 9 9 9 9 9 10 10 8 3 1 1 1 2 4 7 9 11 11 12 13 14 14 13 13 13 14 15 17 17 15 14 16 17 18 19 19 18 17 17 18 18 18 18 18 18 19 20 21 21 21 23 24 25 25 25 26 26 26 26 26 26 26 25 26 27 25 23 23 23 23 23 23
Wind_Direction
325 309 270 228 153 154 163 177 226 197 236 254 241 244 192 112 22 250 200 160 226 148 121 43 127 129 113 340 7 7 335 335 339 312 11 65 146 153 157 157 148 150 151 150 157 155 150 147 141 131 122 117 112 109 105 100 96 90 88 83 82 78 76 73 71 71 68 69 67 66 64 63 60 58 57 55 54 51 49 46 44 42 42 42 41 40 38 38 36 35 35 34 32 32 29 26 28
326 315 223 151 128 187 187 102 248 218 224 249 241 235 111 94 222 250 227 200 25 77 82 101 129 101 38 360 18 285 247 51 3 33 54 113 150 161 160 152 151 152 149 150 157 155 150 145 137 131 122 119 113 110 106 101 96 92 89 85 84 79 77 75 73 73 72 72 69 68 66 65 62 59 58 56 55 52 49 45 44 43 42 42 40 39 38 37 35 35 35 34 32 30 26 24 27
332 338 158 161 111 237 166 181 245 236 233 248 244 179 125 209 231 257 29 37 66 96 126 114 140 182 226 232 197 253 217 104 201 127 92 146 155 172 162 152 154 153 148 149 155 152 145 142 135 130 123 120 114 111 106 101 97 93 91 87 85 81 79 77 76 75 74 73 71 70 66 65 62 60 59 56 55 53 49 45 44 43 42 40 39 39 38 36 35 34 34 33 31 29 26 24 26
9 59 172 193 181 202 205 217 240 244 241 248 253 140 164 228 219 97 93 78 92 144 159 154 177 127 248 239 173 275 231 126 175 160 128 164 171 168 161 157 156 154 153 151 152 146 141 142 135 130 126 121 116 111 107 101 98 94 93 89 86 84 81 79 77 76 75 73 72 69 66 63 60 58 58 56 55 54 49 46 45 43 42 39 37 37 37 36 35 34 32 32 30 28 25 22 24
78 61 160 217 236 212 224 241 241 242 244 254 264 133 163 211 124 124 124 130 151 183 185 189 194 86 261 259 305 270 177 99 154 171 135 164 166 160 161 161 158 156 157 153 151 144 141 142 135 132 127 122 117 111 108 103 99 95 94 92 90 88 84 82 78 77 75 74 72 68 65 63 61 58 56 56 54 54 50 47 45 42 40 38 36 36 34 34 33 32 31 30 29 27 23 19 21
118 70 87 111 11 22 233 236 231 234 242 272 273 130 131 147 75 125 121 135 163 215 218 208 216 113 215 200 236 306 27 73 145 154 136 161 160 160 162 161 158 157 159 156 150 143 143 142 136 134 128 122 118 113 111 106 102 99 96 95 93 90 86 83 79 77 76 73 72 69 65 62 61 58 55 54 53 53 52 48 45 41 40 37 36 35 33 32 31 31 29 27 27 25 21 17 15
182 176 86 101 126 183 243 240 243 241 228 257 276 311 111 121 107 136 144 159 176 210 214 210 251 237 216 122 209 235 89 102 111 151 159 164 161 162 162 159 158 159 162 158 151 146 144 141 136 133 128 124 120 118 115 110 108 104 101 98 94 91 87 83 80 76 74 72 70 68 66 62 61 58 55 54 53 53 51 48 44 41 39 38 36 34 33 31 29 28 26 24 25 22 20 15 11
128 213 56 247 205 206 250 248 254 253 199 22 279 296 70 141 157 173 180 181 186 182 189 194 195 238 203 145 223 143 166 157 136 158 155 165 163 162 162 159 158 160 164 158 151 146 140 138 138 135 131 128 126 124 120 116 113 109 105 101 96 92 87 83 79 76 74 71 69 66 64 62 59 57 54 53 51 50 49 47 43 41 39 37 36 33 32 30 28 26 24 22 21 19 17 12 9
36 2 212 246 236 223 246 248 252 255 240 244 251 226 140 160 181 192 191 186 187 185 187 178 185 221 130 179 210 115 171 180 155 151 154 166 164 163 162 161 160 160 163 158 150 143 139 140 142 139 136 134 131 128 124 121 117 114 109 104 100 93 88 84 80 77 74 70 68 64 62 60 57 55 53 51 49 47 46 45 42 40 38 37 36 33 32 30 27 24 22 21 19 17 14 10 9
94 10 224 232 245 239 242 244 241 233 214 222 247 225 183 174 191 204 203 194 177 180 170 150 194 230 152 191 191 105 174 179 161 151 155 165 165 164 163 161 162 161 161 156 150 145 144 144 145 145 142 140 136 133 129 127 123 118 112 107 102 95 90 83 79 76 73 70 66 63 61 58 55 52 50 48 46 45 43 42 41 39 37 36 35 34 32 28 25 23 21 19 18 16 12 9 12
206 84 258 232 234 243 247 252 250 240 197 226 252 222 190 175 183 203 210 204 175 169 145 153 205 216 211 241 181 93 155 169 162 158 159 165 166 165 162 161 162 162 160 157 152 146 146 147 149 151 147 145 143 140 137 134 130 124 117 110 101 94 90 78 71 68 68 66 62 60 58 57 55 51 48 45 43 43 41 39 38 37 36 34 34 33 31 28 25 22 20 17 16 15 11 10 14
229 162 202 242 242 251 265 278 276 287 284 263 256 148 158 173 177 209 205 202 179 173 173 183 201 186 193 235 129 103 142 164 157 163 165 166 166 164 164 163 163 163 161 158 153 149 150 150 152 155 155 155 151 148 147 144 139 133 120 110 97 84 80 70 58 54 56 54 53 50 49 49 49 47 44 42 38 38 38 37 34 33 33 32 32 31 29 28 26 24 21 18 17 16 16 18 14
242 188 216 244 262 264 278 289 283 300 287 265 342 84 147 179 190 247 197 193 180 178 194 187 184 261 215 101 119 127 136 159 162 167 167 165 165 166 167 166 166 167 166 161 156 156 155 153 156 160 161 160 161 160 157 158 154 141 128 117 83 54 51 50 43 39 37 34 36 37 39 38 37 36 34 33 29 27 30 33 31 27 28 27 27 27 27 26 26 25 24 21 21 22 16 5 351
256 196 237 243 272 264 257 277 279 289 285 62 62 112 170 195 247 316 196 209 188 170 4 169 190 267 234 130 152 150 129 153 166 165 165 166 168 169 169 170 170 171 171 165 161 161 161 160 163 166 167 162 165 168 167 174 177 163 151 135 30 15 22 27 24 19 10 10 14 16 23 24 24 24 22 23 19 18 18 22 25 22 20 20 21 21 22 22 22 23 22 22 18 5 347 336 330
277 177 248 249 227 245 221 259 300 287 290 59 59 127 183 226 359 249 225 249 170 87 33 162 230 281 248 258 129 102 123 153 162 164 166 168 169 171 173 174 174 176 176 173 169 167 168 170 169 172 173 167 166 168 170 181 192 195 200 226 289 328 346 351 348 344 339 344 351 355 2 6 8 9 11 12 10 10 9 9 12 13 11 9 11 10 12 14 14 16 16 16 356 332 328 330 332
302 179 231 251 238 237 204 209 247 273 295 72 85 151 209 183 154 237 266 313 77 109 237 180 205 284 350 32 70 83 131 153 158 161 163 165 166 171 176 177 179 183 183 181 178 174 175 177 176 178 178 178 180 179 179 189 209 219 240 266 286 308 316 320 322 322 324 330 333 336 341 346 349 351 356 359 359 0 0 359 359 2 0 357 358 354 356 2 5 4 5 2 333 324 327 326 328
266 219 231 245 237 230 197 193 197 287 344 90 138 196 233 169 159 233 67 274 238 139 235 199 177 278 359 52 66 112 146 152 152 153 154 157 163 169 176 179 182 188 191 189 186 182 181 183 183 183 185 191 195 200 206 214 230 245 262 279 296 306 310 315 317 316 317 317 317 322 329 331 331 334 338 342 346 349 350 350 348 349 348 344 343 340 340 345 347 344 343 339 324 322 324 324 324
229 217 237 243 239 240 210 213 209 324 330 84 135 204 248 276 143 172 179 215 216 207 220 212 208 173 59 61 101 138 149 151 152 154 156 160 167 172 177 183 184 187 190 192 194 190 186 190 192 190 194 202 207 214 224 233 246 257 268 281 293 299 306 310 311 311 312 310 309 315 317 311 313 318 322 327 333 337 338 339 338 337 335 333 331 331 331 332 332 327 325 323 320 320 323 327 326
233 199 245 246 242 281 339 268 246 282 320 68 110 194 235 289 94 157 238 201 163 242 221 194 220 195 147 110 126 143 152 157 162 166 166 169 174 177 177 179 182 183 184 188 195 197 193 194 198 199 204 212 218 226 236 248 258 266 276 286 293 298 303 307 309 311 312 311 311 314 310 303 308 312 312 317 322 325 328 328 327 325 322 322 322 322 322 323 323 320 319 318 319 323 327 330 327
219 226 250 253 357 314 232 260 279 286 312 302 153 151 212 235 105 183 255 269 221 243 246 207 229 218 179 151 143 155 161 166 172 177 175 175 175 175 175 174 178 179 177 180 190 202 202 202 208 211 218 225 229 237 247 256 264 273 281 289 295 301 305 309 311 312 312 310 311 315 311 308 313 315 312 316 319 320 321 320 318 317 315 315 315 317 318 318 321 321 319 321 323 326 329 328 326
167 226 265 21 66 272 170 215 267 114 284 279 133 149 217 179 171 224 241 278 257 242 297 274 277 303 162 157 157 164 168 174 178 182 180 175 168 161 155 152 162 161 171 179 185 204 209 211 218 223 230 235 240 248 257 263 271 282 290 296 301 305 307 310 312 314 316 314 316 318 317 317 319 317 313 314 315 312 312 315 316 314 313 312 311 315 315 315 320 322 321 324 325 323 325 324 323
202 206 316 71 181 278 95 146 216 134 203 219 168 200 213 120 189 232 229 258 328 38 9 343 340 8 72 158 161 168 176 180 180 182 178 165 154 137 120 119 131 145 166 176 178 209 219 225 231 237 243 247 252 258 265 272 279 288 293 296 302 309 313 320 330 336 336 333 332 330 330 329 327 324 318 315 312 311 312 314 312 309 309 310 311 312 311 312 315 315 316 318 316 315 318 318 317
251 208 115 162 213 275 93 131 164 174 200 195 209 263 103 170 216 196 242 274 356 13 357 350 355 13 22 156 161 173 181 179 172 167 155 138 129 115 108 107 109 122 136 143 156 205 230 237 241 244 248 253 258 261 267 278 288 296 305 318 338 1 10 16 17 13 6 1 356 351 350 346 342 338 332 327 321 318 316 312 310 309 310 310 309 309 309 311 311 310 311 311 311 311 312 313 314
250 244 153 175 205 238 140 101 172 202 222 224 13 193 190 225 255 70 2 342 355 350 343 344 352 20 35 142 155 161 147 141 126 113 111 107 106 104 101 97 97 103 103 100 112 127 196 217 227 232 239 246 253 265 293 44 50 56 58 56 54 54 50 44 38 33 28 22 15 9 7 3 358 354 348 341 333 328 321 317 316 314 314 312 310 311 310 310 310 309 308 309 309 307 308 310 310
221 245 153 157 199 230 239 120 203 207 240 335 145 229 230 162 358 57 34 8 352 343 352 8 35 51 55 86 94 93 97 100 99 93 92 96 100 101 98 97 96 92 89 88 93 94 106 125 108 105 103 97 95 88 83 80 75 73 71 66 61 58 55 49 43 40 35 29 21 14 12 10 5 358 353 345 338 335 327 325 324 320 319 316 314 315 311 311 312 310 309 310 308 306 306 305 304
208 228 136 198 217 29 41 244 213 191 249 153 205 245 194 76 15 111 34 3 348 351 15 37 61 61 59 70 70 76 89 90 94 94 91 95 100 99 95 95 92 86 86 87 84 83 83 87 87 88 90 88 88 85 80 78 74 71 68 64 61 57 54 49 46 43 39 36 28 21 18 15 10 4 357 351 344 340 336 334 332 329 328 324 323 322 318 317 314 311 311 310 307 305 304 301 302
156 174 284 255 304 32 14 305 168 87 248 179 225 258 97 88 282 90 12 353 348 22 46 51 63 66 65 71 73 73 81 86 93 98 97 96 97 96 93 91 90 87 87 85 82 83 83 83 82 81 82 80 79 79 76 73 70 68 65 61 59 56 53 49 48 45 40 37 30 24 20 17 16 11 5 1 354 348 346 345 342 340 339 337 337 335 332 328 323 319 317 315 312 307 303 300 300
90 355 272 232 201 53 5 303 221 271 222 174 231 264 101 123 68 23 347 340 346 51 61 60 65 69 71 72 72 71 74 81 90 95 95 93 94 94 92 90 90 86 79 77 79 80 79 77 77 74 74 73 71 70 69 67 64 63 61 57 55 52 50 47 43 40 34 27 20 17 15 11 11 7 1 356 352 345 340 340 340 339 340 341 339 339 340 337 332 329 326 325 323 315 308 304 300
90 303 284 244 200 150 36 340 284 261 187 138 236 243 115 112 70 16 341 331 333 71 71 68 71 69 73 72 70 69 66 70 75 78 81 83 86 88 85 83 84 81 73 73 78 80 77 76 76 73 72 73 70 65 63 62 61 59 56 54 52 48 44 40 36 31 25 18 9 5 3 360 356 351 343 340 339 335 331 330 330 329 332 332 330 331 335 334 329 327 325 324 323 317 310 308 306
141 161 296 289 237 175 50 348 210 211 164 127 245 273 98 111 68 11 353 338 334 70 72 69 75 71 73 73 73 69 63 66 70 71 74 77 78 78 77 74 74 77 74 73 75 76 76 76 74 71 70 71 70 66 61 58 56 55 52 49 46 43 38 32 28 22 14 9 2 353 350 348 342 338 332 328 328 326 323 320 320 320 317 317 321 322 323 322 317 318 320 317 316 314 310 310 310
220 165 208 286 276 136 76 27 299 178 133 174 255 294 79 116 52 11 4 346 355 63 69 68 72 72 76 76 77 74 68 68 70 69 68 70 71 71 71 71 70 72 71 69 70 71 72 72 70 67 65 64 64 61 57 53 49 47 44 40 35 31 28 23 18 13 6 2 357 346 342 341 337 334 331 328 328 325 322 318 316 313 306 307 311 311 312 314 310 311 315 313 311 310 309 309 309
341 282 224 165 292 348 86 63 358 27 95 319 271 297 92 99 31 12 7 354 24 70 69 69 71 75 79 80 80 79 75 70 68 66 65 66 68 68 68 67 67 67 67 67 67 67 67 66 65 63 60 57 55 52 50 47 42 38 35 31 26 21 16 12 7 4 360 354 351 344 338 338 335 333 332 331 332 331 327 324 319 313 307 307 307 306 308 308 305 304 306 307 306 306 306 306 305
119 285 291 324 294 314 35 103 36 11 286 355 330 294 23 75 25 15 13 5 43 76 73 72 73 77 79 82 82 81 79 72 66 63 64 65 65 66 65 65 65 66 65 65 63 62 61 58 58 55 51 48 45 42 40 37 33 29 27 24 20 16 12 8 3 358 356 351 348 343 338 338 335 333 333 333 336 335 332 329 324 319 315 314 312 310 308 305 303 304 303 300 299 299 300 301 300
136 294 294 290 261 300 312 155 64 14 295 359 11 267 25 49 28 21 18 17 53 74 75 77 76 78 79 80 80 79 77 72 66 63 64 66 65 64 63 63 63 63 63 61 59 57 54 51 49 46 42 39 35 32 29 26 23 20 19 17 13 13 11 7 1 357 356 354 350 345 341 341 338 336 336 336 338 337 334 332 329 327 325 323 321 318 313 309 307 306 303 300 296 294 294 295 297
304 307 298 296 252 244 280 290 35 15 344 313 294 252 39 34 26 26 25 33 61 74 76 79 79 79 78 78 77 76 74 70 66 64 64 63 62 60 59 60 60 59 57 56 55 52 49 45 42 39 35 32 28 25 22 19 17 14 13 11 9 10 8 4 1 359 358 356 354 349 345 345 342 340 339 339 340 338 336 334 333 333 332 330 327 323 320 317 315 311 308 305 300 295 291 292 295
286 292 288 296 293 273 287 3 40 8 323 335 11 50 40 27 24 28 32 46 66 75 79 79 79 78 77 77 77 76 73 71 67 65 63 60 59 58 57 57 56 56 53 52 50 47 44 41 37 35 31 28 25 21 19 17 14 12 9 6 5 4 1 1 1 359 358 357 355 350 347 346 342 341 341 341 342 341 339 336 335 336 335 333 329 328 327 325 325 321 317 312 307 303 297 293 296
270 269 269 282 287 298 331 32 43 4 314 40 75 69 51 35 29 30 34 54 64 72 78 77 79 79 78 79 79 78 76 75 71 66 61 59 57 56 56 54 53 52 49 48 47 43 41 38 35 34 29 27 25 21 19 16 13 10 5 1 358 354 353 357 358 357 357 356 353 350 348 345 343 344 344 343 344 344 342 340 341 343 343 340 335 332 333 334 334 333 328 320 313 310 305 301 306
280 276 287 288 285 311 16 38 37 23 342 59 107 77 60 49 38 37 42 55 59 65 76 79 82 82 80 82 82 81 81 78 72 64 59 57 55 54 54 52 50 49 46 45 46 43 39 37 35 32 27 25 24 21 18 14 10 5 360 355 351 349 350 353 353 353 354 352 348 349 349 347 349 350 350 350 351 351 352 351 350 351 351 347 340 335 339 343 344 346 342 332 322 316 309 307 315
292 295 292 304 326 324 34 84 75 25 338 359 81 63 69 67 56 49 51 61 61 62 71 77 82 84 83 84 85 85 83 76 69 62 58 56 53 52 52 50 49 49 46 44 43 41 38 34 32 29 25 23 21 18 16 9 4 1 357 352 347 346 345 347 349 349 351 350 345 345 347 349 352 355 355 359 3 3 4 0 354 353 352 349 343 338 340 345 346 348 347 340 330 321 311 309 317
298 322 304 333 10 351 354 70 1 339 337 314 321 87 93 83 74 65 60 71 74 68 71 73 76 83 86 84 81 81 79 74 69 63 59 56 53 51 51 49 48 47 44 41 38 37 35 32 29 26 23 21 18 15 12 6 360 357 355 351 347 344 342 345 348 349 351 350 346 343 345 347 350 353 357 1 4 4 4 0 356 352 349 349 344 336 335 338 339 339 339 336 330 323 314 310 313
41 24 352 347 4 344 301 315 318 307 144 328 303 158 113 77 75 76 76 79 80 77 74 74 74 79 84 81 73 70 71 70 69 65 60 57 55 53 51 49 47 46 43 39 36 35 32 28 25 23 20 18 15 11 9 6 0 356 355 353 351 348 346 349 351 349 349 348 345 342 342 344 347 350 353 354 354 356 358 356 353 350 346 345 342 334 329 331 333 333 332 329 324 318 311 306 305
26 55 25 343 336 314 301 312 315 295 159 53 342 284 128 91 79 79 93 88 84 83 78 80 80 77 78 77 75 72 71 70 69 67 63 60 59 56 53 49 46 45 42 38 36 34 31 26 22 20 18 15 13 10 8 7 3 359 359 357 356 351 347 350 350 346 343 342 340 337 336 340 342 344 348 350 348 348 350 350 348 345 342 340 338 332 326 328 330 329 329 324 318 313 306 301 298
351 61 46 305 309 301 307 321 320 312 327 28 352 298 270 108 87 82 101 98 94 87 80 85 81 72 76 74 76 75 72 73 71 69 67 63 60 57 53 48 46 45 40 36 34 31 27 23 18 16 14 13 12 10 8 7 5 2 0 358 356 351 345 344 343 340 337 336 335 333 331 333 334 336 341 345 346 343 341 342 341 339 336 334 332 327 322 325 326 324 324 320 314 310 304 297 295
356 78 266 291 307 304 314 317 301 321 317 40 42 332 280 124 89 96 109 103 102 90 77 84 81 71 77 75 73 72 69 70 71 70 68 64 59 57 55 51 47 44 39 35 30 26 21 17 16 14 12 12 10 9 8 7 4 360 358 356 353 349 343 339 337 336 334 332 332 331 328 328 327 327 332 336 339 339 338 338 337 335 332 329 327 323 318 320 321 320 320 316 312 308 302 295 293
25 84 299 305 310 307 303 286 276 322 261 111 50 4 298 343 103 126 141 109 101 98 85 85 92 85 81 81 79 75 69 66 67 69 68 66 62 60 59 55 49 42 36 32 27 22 16 13 13 12 10 9 7 6 5 5 3 358 356 354 350 346 342 337 335 333 333 332 331 330 327 325 323 320 326 328 331 335 337 335 333 330 328 325 322 317 315 316 318 317 316 314 309 304 299 293 288
11 272 264 81 168 215 283 286 155 218 218 55 22 354 335 11 103 124 151 101 68 94 109 98 104 105 94 91 86 78 73 68 67 70 70 70 70 66 62 57 48 39 33 27 23 18 13 10 10 9 9 7 4 3 2 1 360 356 353 352 347 344 341 338 335 333 333 333 331 329 328 325 321 319 321 324 327 331 333 332 329 326 325 322 317 314 312 313 314 314 312 308 304 300 296 291 286
298 268 244 174 153 153 151 111 193 231 109 62 13 0 346 342 85 71 35 17 339 287 158 137 130 123 109 100 87 74 64 63 65 70 80 79 76 70 61 56 46 36 30 24 19 14 11 8 5 6 5 3 1 0 359 357 356 352 351 349 345 342 341 338 335 333 333 332 330 329 327 323 320 319 320 323 325 329 330 329 327 323 322 320 316 312 309 309 310 310 308 304 300 297 293 289 284
273 287 286 263 190 174 188 167 174 322 31 75 34 359 310 292 71 48 13 5 333 283 192 156 145 128 114 106 86 69 35 38 34 10 51 67 67 66 55 52 43 31 25 19 14 10 8 5 1 2 2 0 360 357 354 353 351 349 347 346 343 340 339 337 334 331 330 330 328 326 324 321 319 319 321 322 323 327 328 326 325 322 320 318 315 311 307 307 307 305 302 299 297 295 292 289 285
342 354 349 347 353 4 339 359 17 343 13 102 49 349 307 138 70 24 7 15 13 27 128 137 131 116 109 107 76 43 345 330 310 312 305 308 18 67 54 44 36 26 19 14 10 6 4 360 357 358 357 357 356 353 351 349 347 347 345 344 341 338 336 335 332 328 328 327 325 323 321 319 318 319 320 320 321 324 325 323 321 319 316 315 313 309 305 304 303 301 298 294 292 292 290 288 284
14 11 4 6 7 356 348 358 347 321 348 86 21 346 314 121 78 34 26 33 44 69 89 93 93 90 84 87 31 295 290 291 283 287 280 274 18 84 62 41 31 21 14 10 7 3 359 355 353 354 353 353 352 350 348 345 344 344 344 341 337 335 335 334 331 328 326 326 323 319 316 315 315 316 317 318 319 321 320 319 317 314 312 311 309 307 304 302 301 298 294 292 289 287 286 285 284
24 1 354 27 36 355 336 344 338 314 312 309 296 340 340 350 65 64 55 67 71 77 86 82 83 80 62 47 357 326 309 293 272 264 260 235 134 98 70 43 26 15 9 7 2 358 355 351 350 352 350 350 350 348 344 341 341 341 341 338 334 333 333 332 329 325 324 324 321 316 312 311 311 312 314 314 315 317 316 315 313 311 310 309 306 304 301 300 299 296 292 290 287 285 283 281 281
57 298 339 28 20 331 311 335 344 300 295 296 281 55 33 37 96 99 90 91 84 84 93 89 85 73 47 23 5 349 332 317 291 262 252 223 138 105 75 41 22 9 4 2 358 355 351 347 347 349 347 346 345 343 340 336 333 334 336 334 330 329 328 327 324 320 319 319 317 313 307 307 308 309 311 312 313 313 313 312 311 309 309 308 305 302 300 299 298 295 292 289 286 285 282 279 279
356 350 11 20 333 290 307 318 161 253 287 320 74 51 104 127 134 138 145 121 100 97 90 85 79 54 18 3 356 342 330 320 303 282 256 202 134 110 77 37 15 4 358 355 354 352 348 342 342 343 341 341 340 338 336 331 327 330 331 331 329 326 324 322 319 317 315 314 314 310 304 304 305 307 309 310 310 310 309 309 308 307 308 306 304 302 300 298 297 294 291 288 287 286 283 280 278
348 27 19 354 246 240 330 322 287 307 308 318 10 342 301 271 136 149 179 200 163 134 90 72 46 12 352 345 339 330 325 319 312 305 269 153 128 113 67 23 3 357 352 349 349 348 346 342 339 340 339 339 339 336 334 330 326 328 330 330 328 324 321 319 315 314 312 311 310 308 305 303 303 305 308 308 308 307 307 307 306 306 306 304 303 301 300 298 296 293 290 287 286 286 283 280 278
49 61 351 320 307 298 343 345 326 338 324 308 322 126 299 5 49 33 355 333 266 218 320 342 343 347 342 336 334 331 330 326 326 326 311 146 139 118 38 357 346 346 345 346 347 346 347 343 338 338 337 336 337 335 332 328 326 327 328 327 325 323 320 317 314 313 311 309 308 307 305 304 305 307 308 307 307 307 306 306 305 304 303 302 302 300 299 298 295 292 290 288 286 285 283 281 280
79 90 22 15 14 329 348 357 307 318 318 314 317 307 5 79 34 1 14 19 359 285 336 334 332 337 334 331 331 333 333 331 333 337 77 156 154 109 358 339 337 340 342 345 345 345 346 342 337 335 335 334 335 334 330 327 326 326 326 325 324 322 319 316 315 313 311 309 308 307 306 306 307 308 307 307 307 306 306 306 305 303 302 301 300 298 297 296 294 291 288 286 285 284 282 280 280
24 38 31 13 358 40 51 9 20 329 314 316 311 304 7 100 55 15 63 48 46 44 349 334 327 328 330 328 329 330 329 328 332 338 165 168 167 318 328 336 335 333 339 343 342 343 343 338 335 334 333 333 334 332 328 325 325 325 325 325 323 321 319 317 316 314 312 310 308 308 308 307 307 307 308 307 306 306 306 306 305 303 302 300 299 298 297 296 294 291 287 285 284 282 280 279 279
41 33 21 4 360 15 257 43 81 358 301 307 296 294 323 105 119 131 120 74 58 26 335 331 325 322 323 323 326 329 327 328 333 331 270 261 303 319 324 331 334 333 336 340 341 341 339 336 334 332 332 332 332 330 326 323 324 323 323 323 322 320 318 317 316 314 312 310 309 309 308 308 307 307 308 308 307 306 305 304 303 301 299 299 298 297 296 295 293 290 286 284 283 282 280 279 278